Погода в Варюхине

Россия / Кемеровская область (Кузбасс)     56°06′12″N   84°53′35″E
темп.,
°C
ветер,
м/с
пор.,
м/с
влажн.,
%
обл.,
%
осадки,
мм/ч
давл.,
гПа
погр.,
м
29 января, сб
сб2901:00−19ю249977 0.0 103258
04:00−23ююв2210086 0.0 103329
07:00−22ююв2310095 0.0 103340
10:00−20ю2499100 0.0 103380
13:00−13ююз2490100 0.0 1033226
16:00−13ю24938 0.0 1033155
19:00−20ю2210054 0.0 103416
22:00−22ю2210099 0.0 103417
30 января, вс
вс3001:00−19ююв22100100 0.0 103431
04:00−21ююв2210071 0.0 103415
07:00−23юв2210057 0.0 103416
10:00−22юв2210017 0.0 103433
13:00−12ююв24895 0.0 1032146
16:00−10юв24905 0.0 1031115
19:00−16юв259373 0.0 103150
22:00−18юв2395100 0.0 103139
31 января, пн
пн3101:00−18ююв229435 0.0 103132
04:00−18юв22945 0.0 103029
07:00−18юв23935 0.0 103040
10:00−17ююв25915 0.0 103157
13:00−9ююв38835 0.0 1030196
16:00−7ююв38865 0.0 1030257
19:00−12ююв37935 0.0 103184
22:00−13ююв3695100 0.0 103186
1 февраля, вт
вт101:00−15ююв359797 0.0 103266
04:00−16ююв259893 0.0 103258
07:00−15ююв359798 0.0 103382
10:00−15ююв3697100 0.0 1034105
13:00−10ююз3691100 0.0 1034275
16:00−9ю3693100 0.0 1035291
19:00−14ю2497100 0.0 103655
22:00−16ю2398100 0.0 103646
2 февраля, ср
ср201:00−17ююв229997 0.0 103732
04:00−17ю239987 0.1 103739
07:00−18ю2310085 0.1 103737
10:00−18ю249985 0.1 103755
13:00−12ю249497 0.1 1037161
16:00−10ю239498 0.0 1036170
19:00−13ююв229896 0.1 103635
22:00−12ю2297100 0.1 103666